7 * 24
多渠道服务支持
STARLINK-2154是美国太空探索技术公司(SpaceX)星链(Starlink)计划中的卫星,于2021年3月4日发射升空。星链计划旨在搭建全球卫星互联网,提供全天候、无缝衔接的全球高速网络服务,该卫星服役至今,为全球地面、偏远地区等提供网络通信支持,进一步完善了星链星座的组网布局。
美国
(US)
| 数据来源 | 国际轨道数据 |
| 星历时间: | 2024-05-15T22:48:02+0800 轨道信息已过期740天 |
| 半长轴: | 6550.764km |
| 偏心率: | 0.0009822 |
| 轨道倾角: | 53.022° |
| 近地点辐角 | 354.023° |
| 升交点赤经 | 285.152° |
| 平近点角 | 80.340° |
| 近地点: | 166.194km |
| 远地点: | 179.064km |
| 周期: | 87.942分钟 |
| 每日圈数: | 16.374379 |